Location: Advent Pentecost Church
(32.7757°N, 96.7408°W)
Time: 07:48:30
(UTC+00:00)

N. Korean satellite - Pass Details

Date: 23 October 2021
Orbit: 447 x 495 km, 97.3° (Epoch: 30 November)

Event Time Altitude Azimuth Distance (km) Brightness Sun altitude
Rises 10:47:00 0° 32° (NNE) 2,582 10.7 -23.9°
Reaches altitude 10° 10:49:42 10° 53° (NE) 1,689 10.0 -23.3°
Maximum altitude 10:52:05 17° 95° (E) 1,320 9.7 -22.8°
Drops below altitude 10° 10:54:27 10° 136° (SE) 1,668 9.8 -22.3°
Sets 10:57:04 0° 157° (SSE) 2,533 10.5 -21.8°
